www.pogodaiklimat.ru

АРХИВ ПОГОДЫ в Биллингсе

Время (UTC), дата Ветер
(напр.,м/с)
 
Видим.   Явления Облачность Т
(С)
Тd
(С)
f
(%)
Тe
(С)
Тes
(С)
Комфортность

P
(гПа)

Po
(гПа)
Тmin
(С)
Tmax
(С)
R
(мм)
SD
(см)
01:53 20.03 ЮЗ  16 км    ясно  +5.6  -5.6  44  +1  +1    1026.8  896.2         
02:53 20.03 ЮЗ  16 км    ясно  +3.9  -5.0  52  -1  -1    1027.2  896.5         
03:53 20.03 ЮЗ  16 км    ясно  +2.8  -4.4  59  -3  -3    1026.7  896.2         
04:53 20.03 ЮЗ  16 км    ясно  +1.7  -4.4  64  -5  -5    1026.6  896.2  +1.7  +8.3     
05:53 20.03 ЮЗ  16 км    ясно  +1.7  -5.6  58  -5  -5    1026.4  896.2         
06:53 20.03 ЮЗ  16 км    ясно  +1.1  -5.0  64  -6  -6    1026.0  895.9         
07:53 20.03 ЮЗ  16 км    ясно  0.0  -5.0  69  -7  -7    1026.0  895.9         
08:53 20.03 ЮЗ  16 км    ясно  0.0  -5.6  66  -8  -8    1025.8  895.9         
09:53 20.03 ЮЗ  16 км    ясно  -0.6  -6.1  66  -9  -9    1025.8  895.6         
10:53 20.03 ЮЗ  16 км    ясно  -0.6  -6.1  66  -8  -8    1025.8  895.9  -1.7  +2.2     
11:53 20.03 ЮЗ  16 км    ясно  -1.7  -6.1  72  -9  -9    1026.0  895.9         
12:53 20.03 ЮЗ  16 км    ясно  -0.6  -6.1  66  -8  -8    1026.3  895.9         
13:53 20.03 ЮЗ  16 км    ясно  +2.8  -6.1  52  -3  -3    1025.9  895.9         
14:53 20.03 ЮЗ  16 км    ясно  +4.4  -6.1  46  -1  -1    1026.1  896.2         
15:53 20.03 ЮЗ  16 км    ясно  +6.1  -5.6  43  +1  +1    1026.3  896.5         
16:53 20.03 ЮЗ  16 км    ясно  +7.2  -5.6  40  +3  +4    1026.5  896.5  -1.7  +7.2     
17:53 20.03 ЮЗ  16 км    ясно  +8.9  -5.0  37  +5  +7    1025.8  896.2         
18:53 20.03 ЮЗ  16 км    ясно  +10.0  -4.4  36  +7  +9    1025.3  895.9         
19:53 20.03 ЮЗ  16 км    ясно  +11.7  -4.4  32  +10  +15    1024.4  895.0         
20:53 20.03 З  16 км    ясно  +12.8  -4.4  30  +13  +22    1023.9  895.0         
21:53 20.03   16 км    ясно  +13.9  -4.4  28  +14  +22    1023.7  894.7         
22:53 20.03 Ю  16 км    ясно  +12.8  -2.8  34  +13  +16    1023.6  894.4  +7.2  +14.4     
23:53 20.03 С  16 км    ясно  +11.7  -2.8  36  +11  +12    1023.8  894.4         
00:53 21.03   16 км    ясно  +7.2  -2.8  49  +7  +7    1024.1  894.1         
01:53 21.03 С  16 км    ясно  +5.6  -2.8  55  +4  +4    1023.5  894.1         
02:53 21.03 С  16 км    ясно  +3.9  -2.8  62  +1  +1    1023.1  893.5         
03:53 21.03   16 км    ясно  +3.3  -3.3  62  +3  +3    1022.7  893.5         
04:53 21.03 ЮЗ  16 км    ясно  +3.3  -1.7  70  -1  -1    1022.6  893.5  +2.8  +13.3     
05:53 21.03 З  16 км    ясно  +4.4  -2.2  62  +2  +2    1022.0  893.2         
06:53 21.03 ЮЗ  16 км    ясно  +1.7  -3.3  69  -3  -3    1022.2  893.2         
07:53 21.03 ЮЗ  16 км    ясно  +0.6  -3.3  75  -5  -5    1022.0  892.9         
08:53 21.03 ЮЗ  16 км    ясно  +0.6  -3.3  75  -5  -5    1021.3  892.6         
09:53 21.03 ЮЗ  16 км    ясно  0.0  -3.3  78  -6  -6    1021.1  892.6         
10:53 21.03 ЮЗ  16 км    ясно  0.0  -3.3  78  -7  -7    1021.1  892.3  -1.1  +5.0     
11:53 21.03 ЮЗ  16 км    ясно  -1.1  -3.9  81  -7  -7    1021.5  892.3         
12:53 21.03 ЮЗ  16 км    ясно  -2.2  -4.4  85  -10  -10    1022.1  892.3         
13:53 21.03 ЮЗ  16 км    2/0 6000 м
[средняя] 
0.0  -4.4  72  -8  -8    1022.1  892.3         
14:53 21.03 ЮЗ  16 км    2/0 6000 м
[средняя] 
+2.2  -3.3  67  -4  -4    1021.9  892.3         
15:53 21.03 ЮЗ  16 км    2/0 6000 м
[средняя] 
+4.4  -3.3  57  -1  +1    1021.6  892.0         
16:53 21.03 ЮЗ  16 км    2/0 6000 м
[средняя] 
+7.2  -3.3  47  +5  +10    1021.0  892.0  -2.2  +7.2     
17:53 21.03 ЮЗ  16 км    2/0 6000 м
[средняя] 
+10.0  -2.8  41  +9  +19  опасность
простуды 
1019.9  891.7         
18:53 21.03 нст  16 км    2/0 6000 м
[средняя] 
+11.7  -3.9  33  +11  +19    1019.4  891.1         
19:53 21.03 нст  16 км    2/0 6000 м
[средняя] 
+12.8  -2.8  34  +13  +23    1018.6  890.2         
20:53 21.03 СВ  16 км    2/0 6300 м
[верхняя] 
+12.2  -2.2  37  +10  +15    1018.3  890.2         
21:53 21.03 СВ  16 км    2/0 6300 м
[верхняя] 
+12.2  -1.1  40  +10  +12    1018.2  890.0         
22:53 21.03 СВ  16 км    5/0 6600 м
[верхняя] 
+12.2  0.0  43  +10  +10    1017.8  889.7  +7.2  +12.8     
23:53 21.03 СВ  16 км    5/0 3600 м
[средняя верхняя] 
+10.0  0.0  50  +7  +7    1018.0  889.4         
00:53 22.03 С  16 км    2/0 3600 м
[средняя] 
+7.2  0.0  60  +4  +4    1018.2  889.1         

 

Местоположение метеостанции Billings Logan International Airport: широта 45.8069 долгота -108.5422 высота над уровнем моря 1112 м.

В архиве по умолчанию представлена погода в Биллингсе за последние 1-2 суток. Обновление информации о фактической погоде в базе происходит ежечасно! Архивные данные за месяц целиком и за предыдущие месяцы Вы можете получить, выбрав интересующий диапазон дат из раскрывающегося списка и нажав кнопку "Ввод!".

Внимание! Архив погоды МЕТАР в базе сайта в настоящее время начинается c 1 января 2011 г. Нет смысла пытаться выбрать более раннюю дату.

Внимание! Время в таблицах - всемирное. Для получения местного времени необходимо прибавить поправку, которая в Биллингсе равна -7 ч.

Ветер - указаны скорость ветра в м/с и направление, откуда дует ветер: С - северный, СВ - северо-восточный, В - восточный, ЮВ - юго-восточный, Ю - южный, ЮЗ - юго-западный, З - западный, СЗ - северо-западный.
Видимость - горизонтальная дальность видимости в метрах или километрах. При видимости от 1 до 10 км при отсутствии осадков обычно наблюдается дымка, при ухудшении видимости до 1 км и менее - туман. В сухую погоду видимость может ухудшаться дымом, пылью или мглою.
Атмосферные явления - указаны явления, наблюдавшиеся в указанный момент времени.
Облачность - указаны через наклонную черту верхняя и нижняя облачность в баллах и высота нижней границы облаков в метрах. Внимание: облачность, как и прочие метеорологические величины в США измеряются автоматическими метеостанциями. Указанные значения в баллах носят условный характер и показывают процент времени, в течение которого, в среднем, лазерный луч высотомера отражался от облаков обратно.
T - Температура воздуха - температура, измеренная на высоте 2 м над землей.
Td - Температура точки росы - температура, при понижении до которой содержащийся в воздухе водяной пар достигнет насыщения.
f - Относительная влажность воздуха - влажноcть воздуха, измеренная на высоте 2 м над землей.
Te - Эффективная температура - температура, которую ощущает одетый по сезону человек в тени. Характеристика душности погоды. При расчете учитывается влияние влажности воздуха и скорости ветра на теплоощущения человека.
Tes - Эффективная температура на солнце - температура, которую ощущает человек, с поправкой на солнечный нагрев. Характеристика знойности погоды. Зависит от высоты солнца над горизонтом, облачности и скорости ветра. Ночью, в пасмурную погоду, а также при ветре 12 м/с и более поправка равна нулю.
P - Атмосферное давление - приведенное к уровню моря атмосферное давление.
Po - Атмосферное давление - измеренное на уровне метеостанции атмосферное давление.
Tmin - Минимальная температура - минимум температуры воздуха на высоте 2 м над землей.
Tmax - Максимальная температура - максимум температуры воздуха на высоте 2 м над землей.
R - Количество осадков - Количество выпавших осадков за 3 или 6 часов, мм.
SD - Снежный покров - Высота снежного покрова, см.